date,time,SUV Intensity [MED/Hr],UV Index,Daily total [MED],Since Last [MED]
03/05/2022,00:07:37,0.001,0.0,0.0,0.0
03/05/2022,00:08:37,-0.000,0.0,0.0,0.0
03/05/2022,00:09:38,-0.001,0.0,0.0,0.0
03/05/2022,00:10:39,0.000,0.0,0.0,0.0
03/05/2022,00:11:37,0.001,0.0,0.0,0.0
03/05/2022,00:12:38,0.000,0.0,0.0,0.0
03/05/2022,00:13:37,0.000,0.0,0.0,0.0
03/05/2022,00:14:38,-0.000,0.0,0.0,0.0
03/05/2022,00:15:46,0.000,0.0,0.0,0.0
03/05/2022,00:16:37,0.000,0.0,0.0,0.0
03/05/2022,00:17:37,0.000,0.0,0.0,0.0
03/05/2022,00:18:38,-0.001,0.0,0.0,0.0
03/05/2022,00:19:37,0.000,0.0,0.0,0.0
03/05/2022,00:20:37,-0.001,0.0,0.0,0.0
03/05/2022,00:21:37,0.001,0.0,0.0,0.0
03/05/2022,00:22:45,-0.001,0.0,0.0,0.0
03/05/2022,00:23:37,0.000,0.0,0.0,0.0
03/05/2022,00:24:37,-0.001,0.0,0.0,0.0
03/05/2022,00:25:46,0.000,0.0,0.0,0.0
03/05/2022,00:26:37,0.000,0.0,0.0,0.0
03/05/2022,00:27:38,0.000,0.0,0.0,0.0
03/05/2022,00:28:37,0.000,0.0,0.0,0.0
03/05/2022,00:29:37,0.000,0.0,0.0,0.0
03/05/2022,00:30:38,-0.000,0.0,0.0,0.0
03/05/2022,00:31:46,0.000,0.0,0.0,0.0
03/05/2022,00:32:37,0.001,0.0,0.0,0.0
03/05/2022,00:33:38,0.001,0.0,0.0,0.0
03/05/2022,00:34:37,0.000,0.0,0.0,0.0
03/05/2022,00:35:37,0.000,0.0,0.0,0.0
03/05/2022,00:36:38,0.000,0.0,0.0,0.0
03/05/2022,00:37:38,-0.001,0.0,0.0,0.0
03/05/2022,00:38:37,0.001,0.0,0.0,0.0
03/05/2022,00:39:37,0.000,0.0,0.0,0.0
03/05/2022,00:40:38,0.000,0.0,0.0,0.0
03/05/2022,00:41:37,-0.001,0.0,0.0,0.0
03/05/2022,00:42:37,-0.001,0.0,0.0,0.0
03/05/2022,00:43:37,-0.001,0.0,0.0,0.0
03/05/2022,00:44:38,0.000,0.0,0.0,0.0
03/05/2022,00:45:37,0.000,0.0,0.0,0.0
03/05/2022,00:46:38,0.000,0.0,0.0,0.0
03/05/2022,00:47:38,0.001,0.0,0.0,0.0
03/05/2022,00:48:37,0.000,0.0,0.0,0.0
03/05/2022,00:49:37,0.000,0.0,0.0,0.0
03/05/2022,00:50:37,0.000,0.0,0.0,0.0
03/05/2022,00:51:37,0.000,0.0,0.0,0.0
03/05/2022,00:52:37,0.000,0.0,0.0,0.0
03/05/2022,00:53:38,-0.001,0.0,0.0,0.0
03/05/2022,00:54:37,0.000,0.0,0.0,0.0
03/05/2022,00:55:37,-0.001,0.0,0.0,0.0
03/05/2022,00:56:38,0.001,0.0,0.0,0.0
03/05/2022,00:57:37,0.000,0.0,0.0,0.0
03/05/2022,00:58:38,0.001,0.0,0.0,0.0
03/05/2022,00:59:37,0.000,0.0,0.0,0.0
03/05/2022,01:00:38,-0.000,0.0,0.0,0.0
03/05/2022,01:01:38,0.000,0.0,0.0,0.0
03/05/2022,01:02:50,0.000,0.0,0.0,0.0
03/05/2022,01:03:36,0.001,0.0,0.0,0.0
03/05/2022,01:04:38,0.000,0.0,0.0,0.0
03/05/2022,01:05:37,0.000,0.0,0.0,0.0
03/05/2022,01:06:37,0.000,0.0,0.0,0.0
03/05/2022,01:07:38,-0.001,0.0,0.0,0.0
03/05/2022,01:08:37,0.000,0.0,0.0,0.0
03/05/2022,01:09:37,0.000,0.0,0.0,0.0
03/05/2022,01:10:46,-0.000,0.0,0.0,0.0
03/05/2022,01:11:37,-0.001,0.0,0.0,0.0
03/05/2022,01:12:37,0.001,0.0,0.0,0.0
03/05/2022,01:13:38,-0.000,0.0,0.0,0.0
03/05/2022,01:14:37,0.001,0.0,0.0,0.0
03/05/2022,01:15:37,0.001,0.0,0.0,0.0
03/05/2022,01:16:37,0.000,0.0,0.0,0.0
03/05/2022,01:17:38,-0.000,0.0,0.0,0.0
03/05/2022,01:18:38,-0.000,0.0,0.0,0.0
03/05/2022,01:19:37,-0.000,0.0,0.0,0.0
03/05/2022,01:20:37,0.000,0.0,0.0,0.0
03/05/2022,01:21:38,0.000,0.0,0.0,0.0
03/05/2022,01:22:38,0.000,0.0,0.0,0.0
03/05/2022,01:23:46,0.000,0.0,0.0,0.0
03/05/2022,01:24:44,0.001,0.0,0.0,0.0
03/05/2022,01:25:37,0.000,0.0,0.0,0.0
03/05/2022,01:26:38,0.000,0.0,0.0,0.0
03/05/2022,01:27:37,0.000,0.0,0.0,0.0
03/05/2022,01:28:37,0.000,0.0,0.0,0.0
03/05/2022,01:29:38,0.000,0.0,0.0,0.0
03/05/2022,01:30:38,0.000,0.0,0.0,0.0
03/05/2022,01:31:41,0.001,0.0,0.0,0.0
03/05/2022,01:32:37,-0.000,0.0,0.0,0.0
03/05/2022,01:33:38,0.001,0.0,0.0,0.0
03/05/2022,01:34:38,0.000,0.0,0.0,0.0
03/05/2022,01:35:37,-0.000,0.0,0.0,0.0
03/05/2022,01:36:50,0.000,0.0,0.0,0.0
03/05/2022,01:37:37,-0.001,0.0,0.0,0.0
03/05/2022,01:38:38,-0.000,0.0,0.0,0.0
03/05/2022,01:39:38,0.000,0.0,0.0,0.0
03/05/2022,01:40:37,-0.000,0.0,0.0,0.0
03/05/2022,01:41:38,0.000,0.0,0.0,0.0
03/05/2022,01:42:37,0.001,0.0,0.0,0.0
03/05/2022,01:43:39,0.000,0.0,0.0,0.0
03/05/2022,01:44:37,0.000,0.0,0.0,0.0
03/05/2022,01:45:37,0.000,0.0,0.0,0.0
03/05/2022,01:46:38,0.000,0.0,0.0,0.0
03/05/2022,01:47:38,0.001,0.0,0.0,0.0
03/05/2022,01:48:45,-0.000,0.0,0.0,0.0
03/05/2022,01:49:37,0.001,0.0,0.0,0.0
03/05/2022,01:50:38,0.000,0.0,0.0,0.0
03/05/2022,01:51:45,0.000,0.0,0.0,0.0
03/05/2022,01:52:37,0.000,0.0,0.0,0.0
03/05/2022,01:53:37,0.000,0.0,0.0,0.0
03/05/2022,01:54:38,0.000,0.0,0.0,0.0
03/05/2022,01:55:37,0.000,0.0,0.0,0.0
03/05/2022,01:56:38,0.000,0.0,0.0,0.0
03/05/2022,01:57:38,0.000,0.0,0.0,0.0
03/05/2022,01:58:37,0.000,0.0,0.0,0.0
03/05/2022,01:59:38,-0.000,0.0,0.0,0.0
03/05/2022,02:00:37,0.001,0.0,0.0,0.0
03/05/2022,02:01:37,0.000,0.0,0.0,0.0
03/05/2022,02:02:38,0.001,0.0,0.0,0.0
03/05/2022,02:03:38,0.001,0.0,0.0,0.0
03/05/2022,02:04:38,0.001,0.0,0.0,0.0
03/05/2022,02:05:37,0.001,0.0,0.0,0.0
03/05/2022,02:06:38,0.001,0.0,0.0,0.0
03/05/2022,02:07:38,0.001,0.0,0.0,0.0
03/05/2022,02:08:37,0.001,0.0,0.0,0.0
03/05/2022,02:09:37,-0.001,0.0,0.0,0.0
03/05/2022,02:10:38,0.001,0.0,0.0,0.0
03/05/2022,02:11:38,0.001,0.0,0.0,0.0
03/05/2022,02:12:38,0.001,0.0,0.0,0.0
03/05/2022,02:13:37,0.000,0.0,0.0,0.0
03/05/2022,02:14:38,0.001,0.0,0.0,0.0
03/05/2022,02:15:37,0.000,0.0,0.0,0.0
03/05/2022,02:16:39,0.001,0.0,0.0,0.0
03/05/2022,02:17:38,0.001,0.0,0.0,0.0
03/05/2022,02:18:37,-0.001,0.0,0.0,0.0
03/05/2022,02:19:45,0.000,0.0,0.0,0.0
03/05/2022,02:20:37,0.000,0.0,0.0,0.0
03/05/2022,02:21:38,0.001,0.0,0.0,0.0
03/05/2022,02:22:37,0.002,0.0,0.0,0.0
03/05/2022,02:23:38,0.000,0.0,0.0,0.0
03/05/2022,02:24:38,0.000,0.0,0.0,0.0
03/05/2022,02:25:37,-0.000,0.0,0.0,0.0
03/05/2022,02:26:37,-0.001,0.0,0.0,0.0
03/05/2022,02:27:38,0.000,0.0,0.0,0.0
03/05/2022,02:28:37,0.000,0.0,0.0,0.0
03/05/2022,02:29:37,-0.000,0.0,0.0,0.0
03/05/2022,02:30:38,0.000,0.0,0.0,0.0
03/05/2022,02:31:37,0.000,0.0,0.0,0.0
03/05/2022,02:32:38,0.000,0.0,0.0,0.0
03/05/2022,02:33:38,0.000,0.0,0.0,0.0
03/05/2022,02:34:37,0.001,0.0,0.0,0.0
03/05/2022,02:35:38,-0.000,0.0,0.0,0.0
03/05/2022,02:36:37,0.001,0.0,0.0,0.0
03/05/2022,02:37:38,0.001,0.0,0.0,0.0
03/05/2022,02:38:38,-0.001,0.0,0.0,0.0
03/05/2022,02:39:37,0.000,0.0,0.0,0.0
03/05/2022,02:40:37,0.000,0.0,0.0,0.0
03/05/2022,02:41:38,0.002,0.0,0.0,0.0
03/05/2022,02:42:39,0.001,0.0,0.0,0.0
03/05/2022,02:43:38,0.000,0.0,0.0,0.0
03/05/2022,02:44:38,0.001,0.0,0.0,0.0
03/05/2022,02:45:38,0.000,0.0,0.0,0.0
03/05/2022,02:46:37,0.000,0.0,0.0,0.0
03/05/2022,02:47:46,0.001,0.0,0.0,0.0
03/05/2022,02:48:38,0.000,0.0,0.0,0.0
03/05/2022,02:49:38,0.000,0.0,0.0,0.0
03/05/2022,02:50:37,-0.000,0.0,0.0,0.0
03/05/2022,02:51:38,-0.001,0.0,0.0,0.0
03/05/2022,02:52:38,0.000,0.0,0.0,0.0
03/05/2022,02:53:38,0.000,0.0,0.0,0.0
03/05/2022,02:54:37,0.000,0.0,0.0,0.0
03/05/2022,02:55:37,0.001,0.0,0.0,0.0
03/05/2022,02:56:37,0.000,0.0,0.0,0.0
03/05/2022,02:57:38,0.001,0.0,0.0,0.0
03/05/2022,02:58:37,-0.000,0.0,0.0,0.0
03/05/2022,02:59:37,0.000,0.0,0.0,0.0
03/05/2022,03:00:38,0.001,0.0,0.0,0.0
03/05/2022,03:01:38,0.000,0.0,0.0,0.0
03/05/2022,03:02:38,0.000,0.0,0.0,0.0
03/05/2022,03:03:38,0.001,0.0,0.0,0.0
03/05/2022,03:04:38,0.000,0.0,0.0,0.0
03/05/2022,03:05:37,0.000,0.0,0.0,0.0
03/05/2022,03:06:37,0.000,0.0,0.0,0.0
03/05/2022,03:07:49,0.000,0.0,0.0,0.0
03/05/2022,03:08:38,0.000,0.0,0.0,0.0
03/05/2022,03:09:37,0.001,0.0,0.0,0.0
03/05/2022,03:10:37,-0.000,0.0,0.0,0.0
03/05/2022,03:11:37,-0.001,0.0,0.0,0.0
03/05/2022,03:12:38,0.001,0.0,0.0,0.0
03/05/2022,03:13:37,-0.000,0.0,0.0,0.0
03/05/2022,03:14:37,-0.001,0.0,0.0,0.0
03/05/2022,03:15:38,0.001,0.0,0.0,0.0
03/05/2022,03:16:38,0.000,0.0,0.0,0.0
03/05/2022,03:17:37,0.000,0.0,0.0,0.0
03/05/2022,03:18:38,-0.001,0.0,0.0,0.0
03/05/2022,03:19:38,-0.001,0.0,0.0,0.0
03/05/2022,03:20:37,0.000,0.0,0.0,0.0
03/05/2022,03:21:46,0.000,0.0,0.0,0.0
03/05/2022,03:22:37,0.000,0.0,0.0,0.0
03/05/2022,03:23:38,0.000,0.0,0.0,0.0
03/05/2022,03:24:38,0.000,0.0,0.0,0.0
03/05/2022,03:25:37,0.000,0.0,0.0,0.0
03/05/2022,03:26:38,0.001,0.0,0.0,0.0
03/05/2022,03:27:38,0.001,0.0,0.0,0.0
03/05/2022,03:28:38,0.000,0.0,0.0,0.0
03/05/2022,03:29:37,0.001,0.0,0.0,0.0
03/05/2022,03:30:38,0.001,0.0,0.0,0.0
03/05/2022,03:31:38,0.000,0.0,0.0,0.0
03/05/2022,03:32:38,0.000,0.0,0.0,0.0
03/05/2022,03:33:37,0.001,0.0,0.0,0.0
03/05/2022,03:34:38,0.000,0.0,0.0,0.0
03/05/2022,03:35:37,0.000,0.0,0.0,0.0
03/05/2022,03:36:38,0.001,0.0,0.0,0.0
03/05/2022,03:37:38,-0.001,0.0,0.0,0.0
03/05/2022,03:38:37,-0.000,0.0,0.0,0.0
03/05/2022,03:39:38,0.000,0.0,0.0,0.0
03/05/2022,03:40:38,0.001,0.0,0.0,0.0
03/05/2022,03:41:37,-0.000,0.0,0.0,0.0
03/05/2022,03:42:38,0.000,0.0,0.0,0.0
03/05/2022,03:43:37,0.001,0.0,0.0,0.0
03/05/2022,03:44:37,-0.001,0.0,0.0,0.0
03/05/2022,03:45:38,0.000,0.0,0.0,0.0
03/05/2022,03:46:38,0.000,0.0,0.0,0.0
03/05/2022,03:47:38,0.001,0.0,0.0,0.0
03/05/2022,03:48:37,-0.000,0.0,0.0,0.0
03/05/2022,03:49:37,0.000,0.0,0.0,0.0
03/05/2022,03:50:39,0.000,0.0,0.0,0.0
03/05/2022,03:51:38,0.001,0.0,0.0,0.0
03/05/2022,03:52:38,-0.000,0.0,0.0,0.0
03/05/2022,03:53:38,0.000,0.0,0.0,0.0
03/05/2022,03:54:37,0.000,0.0,0.0,0.0
03/05/2022,03:55:38,0.000,0.0,0.0,0.0
03/05/2022,03:56:38,0.001,0.0,0.0,0.0
03/05/2022,03:57:38,-0.000,0.0,0.0,0.0
03/05/2022,03:58:38,0.000,0.0,0.0,0.0
03/05/2022,03:59:38,0.001,0.0,0.0,0.0
03/05/2022,04:00:37,0.000,0.0,0.0,0.0
03/05/2022,04:01:38,-0.000,0.0,0.0,0.0
03/05/2022,04:02:38,0.000,0.0,0.0,0.0
03/05/2022,04:03:46,0.001,0.0,0.0,0.0
03/05/2022,04:04:38,0.000,0.0,0.0,0.0
03/05/2022,04:05:38,0.000,0.0,0.0,0.0
03/05/2022,04:06:37,0.001,0.0,0.0,0.0
03/05/2022,04:07:38,0.000,0.0,0.0,0.0
03/05/2022,04:08:38,0.000,0.0,0.0,0.0
03/05/2022,04:09:38,0.001,0.0,0.0,0.0
03/05/2022,04:10:46,0.000,0.0,0.0,0.0
03/05/2022,04:11:38,0.000,0.0,0.0,0.0
03/05/2022,04:12:38,0.001,0.0,0.0,0.0
03/05/2022,04:13:37,0.001,0.0,0.0,0.0
03/05/2022,04:14:38,0.001,0.0,0.0,0.0
03/05/2022,04:15:38,0.000,0.0,0.0,0.0
03/05/2022,04:16:38,0.000,0.0,0.0,0.0
03/05/2022,04:17:38,0.000,0.0,0.0,0.0
03/05/2022,04:18:38,0.000,0.0,0.0,0.0
03/05/2022,04:19:38,0.000,0.0,0.0,0.0
03/05/2022,04:20:38,0.000,0.0,0.0,0.0
03/05/2022,04:21:37,0.000,0.0,0.0,0.0
03/05/2022,04:22:38,0.000,0.0,0.0,0.0
03/05/2022,04:23:46,0.001,0.0,0.0,0.0
03/05/2022,04:24:46,0.000,0.0,0.0,0.0
03/05/2022,04:25:38,0.001,0.0,0.0,0.0
03/05/2022,04:26:38,0.001,0.0,0.0,0.0
03/05/2022,04:27:37,0.001,0.0,0.0,0.0
03/05/2022,04:28:38,0.001,0.0,0.0,0.0
03/05/2022,04:29:38,0.001,0.0,0.0,0.0
03/05/2022,04:30:38,0.001,0.0,0.0,0.0
03/05/2022,04:31:46,0.001,0.0,0.0,0.0
03/05/2022,04:32:37,0.001,0.0,0.0,0.0
03/05/2022,04:33:38,-0.000,0.0,0.0,0.0
03/05/2022,04:34:38,-0.000,0.0,0.0,0.0
03/05/2022,04:35:38,0.001,0.0,0.0,0.0
03/05/2022,04:36:38,0.002,0.0,0.0,0.0
03/05/2022,04:37:37,0.001,0.0,0.0,0.0
03/05/2022,04:38:38,0.001,0.0,0.0,0.0
03/05/2022,04:39:37,0.001,0.0,0.0,0.0
03/05/2022,04:40:38,0.001,0.0,0.0,0.0
03/05/2022,04:41:46,0.001,0.0,0.0,0.0
03/05/2022,04:42:37,0.001,0.0,0.0,0.0
03/05/2022,04:43:37,0.002,0.0,0.0,0.0
03/05/2022,04:44:38,0.000,0.0,0.0,0.0
03/05/2022,04:45:38,0.001,0.0,0.0,0.0
03/05/2022,04:46:38,0.002,0.0,0.0,0.0
03/05/2022,04:47:37,0.002,0.0,0.0,0.0
03/05/2022,04:48:37,0.002,0.0,0.0,0.0
03/05/2022,04:49:37,0.002,0.0,0.0,0.0
03/05/2022,04:50:38,0.002,0.0,0.0,0.0
03/05/2022,04:51:39,0.002,0.0,0.0,0.0
03/05/2022,04:52:47,0.002,0.0,0.0,0.0
03/05/2022,04:53:38,0.002,0.0,0.0,0.0
03/05/2022,04:54:38,0.002,0.0,0.0,0.0
03/05/2022,04:55:37,0.003,0.0,0.0,0.0
03/05/2022,04:56:38,0.003,0.0,0.0,0.0
03/05/2022,04:57:38,0.002,0.0,0.0,0.0
03/05/2022,04:58:38,0.003,0.0,0.0,0.0
03/05/2022,04:59:38,0.004,0.0,0.0,0.0
03/05/2022,05:00:38,0.003,0.0,0.0,0.0
03/05/2022,05:01:38,0.004,0.0,0.0,0.0
03/05/2022,05:02:46,0.004,0.0,0.0,0.0
03/05/2022,05:03:38,0.002,0.0,0.0,0.0
03/05/2022,05:04:38,0.003,0.0,0.0,0.0
03/05/2022,05:05:37,0.003,0.0,0.0,0.0
03/05/2022,05:06:38,0.004,0.0,0.0,0.0
03/05/2022,05:07:38,0.004,0.0,0.0,0.0
03/05/2022,05:08:37,0.004,0.0,0.0,0.0
03/05/2022,05:09:38,0.004,0.0,0.0,0.0
03/05/2022,05:10:38,0.004,0.0,0.0,0.0
03/05/2022,05:11:38,0.005,0.0,0.0,0.0
03/05/2022,05:12:38,0.005,0.0,0.0,0.0
03/05/2022,05:13:38,0.004,0.0,0.0,0.0
03/05/2022,05:14:38,0.005,0.0,0.0,0.0
03/05/2022,05:15:38,0.005,0.0,0.0,0.0
03/05/2022,05:16:37,0.005,0.0,0.0,0.0
03/05/2022,05:17:38,0.005,0.0,0.0,0.0
03/05/2022,05:18:38,0.006,0.0,0.0,0.0
03/05/2022,05:19:37,0.005,0.0,0.0,0.0
03/05/2022,05:20:38,0.005,0.0,0.0,0.0
03/05/2022,05:21:38,0.005,0.0,0.0,0.0
03/05/2022,05:22:38,0.006,0.0,0.0,0.0
03/05/2022,05:23:46,0.006,0.0,0.0,0.0
03/05/2022,05:24:38,0.006,0.0,0.0,0.0
03/05/2022,05:25:38,0.005,0.0,0.0,0.0
03/05/2022,05:26:37,0.006,0.0,0.0,0.0
03/05/2022,05:27:38,0.006,0.0,0.0,0.0
03/05/2022,05:28:38,0.006,0.0,0.0,0.0
03/05/2022,05:29:37,0.007,0.0,0.0,0.0
03/05/2022,05:31:11,0.006,0.0,0.001,0.001
03/05/2022,05:32:29,0.007,0.0,0.001,0.0
03/05/2022,05:33:39,0.007,0.0,0.001,0.0
03/05/2022,05:34:38,0.007,0.0,0.001,0.0
03/05/2022,05:35:37,0.008,0.0,0.001,0.0
03/05/2022,05:36:38,0.008,0.0,0.001,0.0
03/05/2022,05:37:38,0.008,0.0,0.001,0.0
03/05/2022,05:38:38,0.009,0.0,0.001,0.0
03/05/2022,05:39:38,0.008,0.0,0.002,0.001
03/05/2022,05:40:38,0.008,0.0,0.002,0.0
03/05/2022,05:41:38,0.008,0.0,0.002,0.0
03/05/2022,05:42:38,0.009,0.0,0.002,0.0
03/05/2022,05:43:38,0.008,0.0,0.002,0.0
03/05/2022,05:44:38,0.007,0.0,0.002,0.0
03/05/2022,05:45:38,0.008,0.0,0.002,0.0
03/05/2022,05:46:38,0.008,0.0,0.003,0.001
03/05/2022,05:47:38,0.010,0.0,0.003,0.0
03/05/2022,05:48:38,0.008,0.0,0.003,0.0
03/05/2022,05:49:38,0.009,0.0,0.003,0.0
03/05/2022,05:50:46,0.010,0.0,0.003,0.0
03/05/2022,05:51:38,0.010,0.0,0.003,0.0
03/05/2022,05:52:38,0.010,0.0,0.003,0.0
03/05/2022,05:53:37,0.011,0.0,0.004,0.001
03/05/2022,05:54:39,0.010,0.0,0.004,0.0
03/05/2022,05:55:38,0.012,0.0,0.004,0.0
03/05/2022,05:56:38,0.013,0.0,0.004,0.0
03/05/2022,05:57:38,0.013,0.0,0.004,0.0
03/05/2022,05:58:38,0.014,0.0,0.005,0.001
03/05/2022,05:59:38,0.014,0.0,0.005,0.0
03/05/2022,06:00:38,0.014,0.0,0.005,0.0
03/05/2022,06:01:38,0.015,0.0,0.005,0.0
03/05/2022,06:02:38,0.015,0.0,0.006,0.001
03/05/2022,06:03:37,0.015,0.0,0.006,0.0
03/05/2022,06:04:40,0.016,0.0,0.006,0.0
03/05/2022,06:05:38,0.016,0.0,0.006,0.0
03/05/2022,06:06:38,0.016,0.0,0.007,0.001
03/05/2022,06:07:38,0.017,0.0,0.007,0.0
03/05/2022,06:08:46,0.018,0.0,0.007,0.0
03/05/2022,06:09:46,0.019,0.0,0.008,0.001
03/05/2022,06:10:37,0.019,0.0,0.008,0.0
03/05/2022,06:11:38,0.019,0.0,0.008,0.0
03/05/2022,06:12:38,0.019,0.0,0.008,0.0
03/05/2022,06:13:38,0.020,0.0,0.009,0.001
03/05/2022,06:14:38,0.022,0.0,0.009,0.0
03/05/2022,06:15:37,0.022,0.0,0.009,0.0
03/05/2022,06:16:47,0.021,0.0,0.01,0.001
03/05/2022,06:17:38,0.022,0.0,0.01,0.0
03/05/2022,06:18:38,0.022,0.0,0.011,0.001
03/05/2022,06:19:38,0.022,0.0,0.011,0.0
03/05/2022,06:20:38,0.024,0.0,0.011,0.0
03/05/2022,06:21:38,0.023,0.0,0.012,0.001
03/05/2022,06:22:38,0.023,0.0,0.012,0.0
03/05/2022,06:23:38,0.023,0.0,0.012,0.0
03/05/2022,06:24:38,0.025,0.0,0.013,0.001
03/05/2022,06:25:38,0.026,0.0,0.013,0.0
03/05/2022,06:26:46,0.027,0.0,0.014,0.001
03/05/2022,06:27:38,0.028,0.0,0.014,0.0
03/05/2022,06:28:38,0.028,0.0,0.015,0.001
03/05/2022,06:29:47,0.027,0.0,0.015,0.0
03/05/2022,06:30:37,0.027,0.0,0.016,0.001
03/05/2022,06:31:38,0.025,0.0,0.016,0.0
03/05/2022,06:32:38,0.025,0.0,0.016,0.0
03/05/2022,06:33:38,0.025,0.0,0.017,0.001
03/05/2022,06:34:38,0.023,0.0,0.017,0.0
03/05/2022,06:35:38,0.022,0.0,0.018,0.001
03/05/2022,06:36:38,0.022,0.0,0.018,0.0
03/05/2022,06:37:47,0.023,0.0,0.018,0.0
03/05/2022,06:38:37,0.024,0.0,0.019,0.001
03/05/2022,06:39:38,0.026,0.0,0.019,0.0
03/05/2022,06:40:38,0.029,0.0,0.02,0.001
03/05/2022,06:41:38,0.032,0.0,0.02,0.0
03/05/2022,06:42:38,0.035,0.0,0.021,0.001
03/05/2022,06:43:38,0.035,0.0,0.021,0.0
03/05/2022,06:44:38,0.035,0.0,0.022,0.001
03/05/2022,06:45:38,0.035,0.0,0.022,0.0
03/05/2022,06:46:38,0.035,0.0,0.023,0.001
03/05/2022,06:47:46,0.036,0.0,0.024,0.001
03/05/2022,06:48:38,0.037,0.0,0.024,0.0
03/05/2022,06:49:38,0.039,0.0,0.025,0.001
03/05/2022,06:50:38,0.039,0.0,0.025,0.0
03/05/2022,06:51:38,0.039,0.0,0.026,0.001
03/05/2022,06:52:38,0.042,0.0,0.027,0.001
03/05/2022,06:53:38,0.043,0.0,0.027,0.0
03/05/2022,06:54:38,0.043,0.0,0.028,0.001
03/05/2022,06:55:38,0.043,0.0,0.029,0.001
03/05/2022,06:56:38,0.045,0.0,0.03,0.001
03/05/2022,06:57:39,0.046,0.0,0.03,0.0
03/05/2022,06:58:38,0.045,0.0,0.031,0.001
03/05/2022,06:59:38,0.046,0.0,0.032,0.001
03/05/2022,07:00:38,0.046,0.0,0.033,0.001
03/05/2022,07:01:38,0.046,0.0,0.033,0.0
03/05/2022,07:02:38,0.044,0.0,0.034,0.001
03/05/2022,07:03:38,0.042,0.0,0.035,0.001
03/05/2022,07:04:46,0.043,0.0,0.036,0.001
03/05/2022,07:05:46,0.044,0.0,0.036,0.0
03/05/2022,07:06:38,0.045,0.0,0.037,0.001
03/05/2022,07:07:38,0.046,0.0,0.038,0.001
03/05/2022,07:08:46,0.048,0.0,0.039,0.001
03/05/2022,07:09:38,0.047,0.0,0.039,0.0
03/05/2022,07:10:38,0.048,0.0,0.04,0.001
03/05/2022,07:11:38,0.051,0.0,0.041,0.001
03/05/2022,07:12:38,0.054,0.0,0.042,0.001
03/05/2022,07:13:38,0.054,0.0,0.043,0.001
03/05/2022,07:14:38,0.055,0.0,0.044,0.001
03/05/2022,07:15:53,0.052,0.0,0.045,0.001
03/05/2022,07:17:38,0.055,0.0,0.046,0.001
03/05/2022,07:18:38,0.058,0.0,0.047,0.001
03/05/2022,07:19:38,0.057,0.0,0.048,0.001
03/05/2022,07:20:38,0.056,0.0,0.049,0.001
03/05/2022,07:21:38,0.055,0.0,0.05,0.001
03/05/2022,07:22:38,0.056,0.0,0.051,0.001
03/05/2022,07:23:39,0.058,0.0,0.052,0.001
03/05/2022,07:24:38,0.060,0.0,0.053,0.001
03/05/2022,07:25:47,0.062,0.0,0.054,0.001
03/05/2022,07:26:38,0.065,0.0,0.055,0.001
03/05/2022,07:27:38,0.066,0.0,0.056,0.001
03/05/2022,07:28:38,0.067,0.0,0.057,0.001
03/05/2022,07:29:38,0.069,0.0,0.058,0.001
03/05/2022,07:30:38,0.068,0.0,0.059,0.001
03/05/2022,07:31:38,0.067,0.0,0.061,0.002
03/05/2022,07:32:38,0.069,0.0,0.062,0.001
03/05/2022,07:33:46,0.069,0.0,0.063,0.001
03/05/2022,07:34:38,0.067,0.0,0.064,0.001
03/05/2022,07:35:38,0.068,0.0,0.065,0.001
03/05/2022,07:36:38,0.070,0.0,0.066,0.001
03/05/2022,07:37:38,0.072,0.0,0.067,0.001
03/05/2022,07:38:38,0.074,0.0,0.069,0.002
03/05/2022,07:39:38,0.076,0.0,0.07,0.001
03/05/2022,07:40:38,0.079,0.0,0.071,0.001
03/05/2022,07:41:38,0.079,0.0,0.073,0.002
03/05/2022,07:42:38,0.081,0.0,0.074,0.001
03/05/2022,07:43:38,0.085,0.0,0.075,0.001
03/05/2022,07:44:38,0.085,0.0,0.077,0.002
03/05/2022,07:45:38,0.086,0.0,0.078,0.001
03/05/2022,07:46:46,0.090,0.0,0.08,0.002
03/05/2022,07:47:38,0.095,0.0,0.081,0.001
03/05/2022,07:48:38,0.093,0.0,0.083,0.002
03/05/2022,07:49:38,0.090,0.0,0.084,0.001
03/05/2022,07:50:39,0.090,0.0,0.086,0.002
03/05/2022,07:51:38,0.098,0.0,0.087,0.001
03/05/2022,07:52:39,0.101,0.0,0.089,0.002
03/05/2022,07:53:39,0.102,0.0,0.091,0.002
03/05/2022,07:54:38,0.100,0.0,0.092,0.001
03/05/2022,07:55:38,0.099,0.0,0.094,0.002
03/05/2022,07:56:38,0.101,0.0,0.096,0.002
03/05/2022,07:57:38,0.107,0.0,0.097,0.001
03/05/2022,07:58:38,0.111,0.0,0.099,0.002
03/05/2022,07:59:38,0.113,0.0,0.101,0.002
03/05/2022,08:00:38,0.119,0.0,0.103,0.002
03/05/2022,08:01:38,0.132,0.0,0.105,0.002
03/05/2022,08:02:38,0.149,0.0,0.107,0.002
03/05/2022,08:03:38,0.159,0.0,0.11,0.003
03/05/2022,08:04:38,0.154,0.0,0.113,0.003
03/05/2022,08:05:38,0.146,0.0,0.115,0.002
03/05/2022,08:06:46,0.139,0.0,0.118,0.003
03/05/2022,08:07:46,0.141,0.0,0.12,0.002
03/05/2022,08:08:38,0.150,0.0,0.122,0.002
03/05/2022,08:09:38,0.160,0.0,0.125,0.003
03/05/2022,08:10:38,0.164,0.0,0.127,0.002
03/05/2022,08:11:46,0.168,0.0,0.131,0.004
03/05/2022,08:12:38,0.170,0.0,0.133,0.002
03/05/2022,08:13:38,0.177,0.0,0.136,0.003
03/05/2022,08:14:46,0.196,0.0,0.139,0.003
03/05/2022,08:15:37,0.208,0.0,0.142,0.003
03/05/2022,08:16:38,0.213,0.0,0.146,0.004
03/05/2022,08:17:46,0.211,0.0,0.15,0.004
03/05/2022,08:18:38,0.207,0.0,0.153,0.003
03/05/2022,08:19:39,0.214,0.0,0.156,0.003
03/05/2022,08:20:39,0.215,0.0,0.16,0.004
03/05/2022,08:21:38,0.210,0.0,0.164,0.004
03/05/2022,08:22:38,0.211,0.0,0.167,0.003
03/05/2022,08:23:39,0.226,1.0,0.171,0.004
03/05/2022,08:24:40,0.248,1.0,0.175,0.004
03/05/2022,08:25:46,0.249,1.0,0.179,0.004
03/05/2022,08:26:38,0.233,1.0,0.183,0.004
03/05/2022,10:21:50,0.410,1.0,0.773,0.59
03/05/2022,12:57:33,1.093,3.0,3.241,2.468
03/05/2022,13:59:00,0.886,2.0,4.397,1.156
03/05/2022,14:48:08,0.865,2.0,5.131,0.734
03/05/2022,14:54:43,0.836,2.0,5.225,0.094
03/05/2022,14:55:40,0.829,2.0,5.238,0.013
03/05/2022,14:56:39,0.814,2.0,5.251,0.013
03/05/2022,14:57:39,0.801,2.0,5.265,0.014
03/05/2022,14:58:39,0.795,2.0,5.278,0.013
03/05/2022,14:59:39,0.792,2.0,5.291,0.013
03/05/2022,15:00:39,0.782,2.0,5.304,0.013
03/05/2022,15:01:47,0.767,2.0,5.319,0.015
03/05/2022,15:03:40,0.745,2.0,5.343,0.024
03/05/2022,15:04:45,0.727,2.0,5.356,0.013
03/05/2022,15:05:39,0.711,2.0,5.367,0.011
03/05/2022,15:06:39,0.689,2.0,5.379,0.012
03/05/2022,15:07:47,0.662,2.0,5.392,0.013
03/05/2022,15:08:39,0.640,1.0,5.401,0.009
03/05/2022,15:09:39,0.620,1.0,5.411,0.01
03/05/2022,15:10:38,0.600,1.0,5.421,0.01
03/05/2022,15:11:39,0.587,1.0,5.431,0.01
03/05/2022,15:12:38,0.572,1.0,5.441,0.01
03/05/2022,15:13:38,0.559,1.0,5.45,0.009
03/05/2022,15:14:39,0.544,1.0,5.459,0.009
03/05/2022,15:15:40,0.531,1.0,5.469,0.01
03/05/2022,15:16:39,0.520,1.0,5.477,0.008
03/05/2022,15:17:47,0.511,1.0,5.487,0.01
03/05/2022,15:18:38,0.503,1.0,5.494,0.007
03/05/2022,15:19:38,0.496,1.0,5.503,0.009
03/05/2022,15:20:47,0.490,1.0,5.512,0.009
03/05/2022,15:22:39,0.493,1.0,5.527,0.015
03/05/2022,15:23:39,0.502,1.0,5.535,0.008
03/05/2022,15:24:39,0.511,1.0,5.544,0.009
03/05/2022,15:25:39,0.515,1.0,5.552,0.008
03/05/2022,15:26:39,0.517,1.0,5.561,0.009
03/05/2022,15:27:47,0.520,1.0,5.571,0.01
03/05/2022,15:29:39,0.521,1.0,5.587,0.016
03/05/2022,15:30:39,0.523,1.0,5.596,0.009
03/05/2022,15:31:38,0.522,1.0,5.604,0.008
03/05/2022,15:32:38,0.521,1.0,5.613,0.009
03/05/2022,15:33:39,0.519,1.0,5.622,0.009
03/05/2022,15:34:38,0.519,1.0,5.63,0.008
03/05/2022,15:35:39,0.524,1.0,5.639,0.009
03/05/2022,15:36:39,0.530,1.0,5.648,0.009
03/05/2022,15:37:39,0.530,1.0,5.657,0.009
03/05/2022,15:38:38,0.531,1.0,5.666,0.009
03/05/2022,15:39:39,0.530,1.0,5.674,0.008
03/05/2022,15:40:38,0.528,1.0,5.683,0.009
03/05/2022,15:41:39,0.529,1.0,5.692,0.009
03/05/2022,15:42:39,0.531,1.0,5.701,0.009
03/05/2022,15:43:47,0.525,1.0,5.711,0.01
03/05/2022,15:45:39,0.537,1.0,5.728,0.017
03/05/2022,15:46:38,0.525,1.0,5.736,0.008
03/05/2022,15:47:39,0.518,1.0,5.745,0.009
03/05/2022,15:48:39,0.513,1.0,5.753,0.008
03/05/2022,15:49:39,0.509,1.0,5.762,0.009
03/05/2022,15:50:39,0.508,1.0,5.77,0.008
03/05/2022,15:51:38,0.514,1.0,5.779,0.009
03/05/2022,15:52:39,0.508,1.0,5.787,0.008
03/05/2022,15:53:48,0.502,1.0,5.797,0.01
03/05/2022,15:54:39,0.500,1.0,5.804,0.007
03/05/2022,15:55:39,0.499,1.0,5.813,0.009
03/05/2022,15:56:39,0.499,1.0,5.821,0.008
03/05/2022,15:57:38,0.511,1.0,5.829,0.008
03/05/2022,15:58:38,0.496,1.0,5.838,0.009
03/05/2022,15:59:39,0.483,1.0,5.846,0.008
03/05/2022,16:00:39,0.477,1.0,5.854,0.008
03/05/2022,16:01:39,0.469,1.0,5.862,0.008
03/05/2022,16:02:39,0.464,1.0,5.869,0.007
03/05/2022,16:03:39,0.461,1.0,5.877,0.008
03/05/2022,16:04:39,0.463,1.0,5.885,0.008
03/05/2022,16:05:39,0.462,1.0,5.893,0.008
03/05/2022,16:06:39,0.462,1.0,5.9,0.007
03/05/2022,16:07:38,0.464,1.0,5.908,0.008
03/05/2022,16:08:39,0.472,1.0,5.916,0.008
03/05/2022,16:09:39,0.465,1.0,5.924,0.008
03/05/2022,16:10:39,0.466,1.0,5.931,0.007
03/05/2022,16:11:38,0.462,1.0,5.939,0.008
03/05/2022,16:12:47,0.450,1.0,5.948,0.009
03/05/2022,16:14:40,0.437,1.0,5.962,0.014
03/05/2022,16:15:48,0.429,1.0,5.97,0.008
03/05/2022,16:16:39,0.428,1.0,5.976,0.006
03/05/2022,16:17:39,0.421,1.0,5.983,0.007
03/05/2022,16:18:39,0.413,1.0,5.99,0.007
03/05/2022,16:38:54,0.294,1.0,6.109,0.119
03/05/2022,16:40:40,0.282,1.0,6.117,0.008
03/05/2022,16:41:47,0.279,1.0,6.122,0.005
03/05/2022,16:42:38,0.278,1.0,6.126,0.004
03/05/2022,16:43:39,0.276,1.0,6.131,0.005
03/05/2022,16:44:47,0.273,1.0,6.136,0.005
03/05/2022,16:45:39,0.270,1.0,6.14,0.004
03/05/2022,16:46:39,0.268,1.0,6.145,0.005
03/05/2022,16:47:39,0.266,1.0,6.149,0.004
03/05/2022,16:48:39,0.261,1.0,6.153,0.004
03/05/2022,16:49:39,0.256,1.0,6.158,0.005
03/05/2022,16:50:39,0.254,1.0,6.162,0.004
03/05/2022,16:51:39,0.249,1.0,6.166,0.004
03/05/2022,16:52:39,0.246,1.0,6.17,0.004
03/05/2022,16:53:39,0.247,1.0,6.174,0.004
03/05/2022,16:54:45,0.244,1.0,6.179,0.005
03/05/2022,16:56:39,0.234,1.0,6.187,0.008
03/05/2022,16:57:39,0.230,1.0,6.191,0.004
03/05/2022,16:58:39,0.226,1.0,6.194,0.003
03/05/2022,16:59:39,0.223,1.0,6.198,0.004